TimeEDT,TemperatureF,Dew PointF,Humidity,Sea Level PressureIn,VisibilityMPH,Wind Direction,Wind SpeedMPH,Gust SpeedMPH,PrecipitationIn,Events,Conditions,WindDirDegrees,DateUTC
12:52 AM,53.1,51.1,93,29.88,10.0,Calm,Calm,-,N/A,,Clear,0,2013-05-23 04:52:00
1:47 AM,51.8,50.0,94,29.85,2.5,West,3.5,-,0.01,,Partly Cloudy,280,2013-05-23 05:47:00
1:52 AM,51.1,50.0,96,29.86,1.2,WNW,3.5,-,0.01,,Scattered Clouds,300,2013-05-23 05:52:00
1:57 AM,51.8,50.0,94,29.84,2.0,Calm,Calm,-,N/A,,Scattered Clouds,0,2013-05-23 05:57:00
2:02 AM,50.0,48.2,94,29.84,1.2,Calm,Calm,-,N/A,,Mostly Cloudy,0,2013-05-23 06:02:00
2:05 AM,50.0,48.2,94,29.84,0.8,Calm,Calm,-,N/A,,Mostly Cloudy,0,2013-05-23 06:05:00
2:17 AM,51.8,50.0,94,29.83,0.2,Calm,Calm,-,N/A,Fog,Fog,0,2013-05-23 06:17:00
2:32 AM,50.0,48.2,94,29.83,0.5,Calm,Calm,-,N/A,Fog,Fog,0,2013-05-23 06:32:00
2:42 AM,51.8,50.0,94,29.83,1.8,Calm,Calm,-,N/A,,Overcast,0,2013-05-23 06:42:00
2:45 AM,51.8,50.0,94,29.83,3.0,NNW,3.5,-,N/A,,Overcast,330,2013-05-23 06:45:00
2:52 AM,51.1,50.0,96,29.83,5.0,NNW,6.9,-,N/A,,Mostly Cloudy,340,2013-05-23 06:52:00
3:07 AM,51.8,51.8,100,29.83,10.0,Calm,Calm,-,N/A,,Mostly Cloudy,0,2013-05-23 07:07:00
3:36 AM,53.6,51.8,94,29.87,10.0,Calm,Calm,-,N/A,,Mostly Cloudy,0,2013-05-23 07:36:00
3:52 AM,53.1,51.1,93,29.84,10.0,ESE,4.6,-,0.00,Rain,Light Rain,110,2013-05-23 07:52:00
4:04 AM,53.6,51.8,94,29.84,10.0,South,3.5,-,0.00,Rain,Light Rain,190,2013-05-23 08:04:00
4:16 AM,53.6,51.8,94,29.84,10.0,SSE,3.5,-,0.00,,Mostly Cloudy,160,2013-05-23 08:16:00
4:22 AM,53.6,51.8,94,29.83,10.0,Calm,Calm,-,0.00,,Mostly Cloudy,0,2013-05-23 08:22:00
4:52 AM,53.1,52.0,96,29.83,10.0,Calm,Calm,-,0.00,,Overcast,0,2013-05-23 08:52:00
5:09 AM,53.6,51.8,94,29.83,9.0,Calm,Calm,-,N/A,,Overcast,0,2013-05-23 09:09:00
5:42 AM,53.6,53.6,100,29.84,8.0,Calm,Calm,-,N/A,,Overcast,0,2013-05-23 09:42:00
5:52 AM,54.0,53.1,97,29.85,10.0,Calm,Calm,-,N/A,,Overcast,0,2013-05-23 09:52:00
6:52 AM,54.0,53.1,97,29.85,10.0,South,4.6,-,N/A,,Overcast,170,2013-05-23 10:52:00
7:52 AM,55.9,53.1,90,29.85,10.0,South,3.5,-,N/A,,Overcast,170,2013-05-23 11:52:00
8:52 AM,60.1,55.9,86,29.85,10.0,SSE,4.6,-,N/A,,Mostly Cloudy,150,2013-05-23 12:52:00
9:01 AM,60.8,55.4,82,29.84,10.0,Variable,3.5,-,N/A,,Scattered Clouds,0,2013-05-23 13:01:00
9:52 AM,64.0,57.0,78,29.83,10.0,Calm,Calm,-,N/A,,Clear,0,2013-05-23 13:52:00
10:52 AM,66.9,57.9,73,29.81,10.0,Calm,Calm,-,N/A,,Clear,0,2013-05-23 14:52:00
11:52 AM,71.1,60.1,68,29.80,10.0,North,3.5,-,N/A,,Mostly Cloudy,360,2013-05-23 15:52:00
12:52 PM,75.0,63.0,66,29.79,10.0,Calm,Calm,-,N/A,,Partly Cloudy,0,2013-05-23 16:52:00
1:52 PM,78.1,61.0,56,29.77,10.0,Calm,Calm,-,N/A,,Overcast,0,2013-05-23 17:52:00
2:52 PM,75.9,60.1,58,29.76,10.0,South,8.1,-,0.00,,Overcast,170,2013-05-23 18:52:00
3:52 PM,73.0,61.0,66,29.76,10.0,South,5.8,-,N/A,,Overcast,170,2013-05-23 19:52:00
4:52 PM,72.0,62.1,71,29.77,10.0,SSE,9.2,-,N/A,,Overcast,150,2013-05-23 20:52:00
5:52 PM,72.0,62.1,71,29.75,10.0,SSE,9.2,-,N/A,,Mostly Cloudy,160,2013-05-23 21:52:00
6:52 PM,72.0,61.0,68,29.75,10.0,SSE,10.4,19.6,N/A,,Clear,160,2013-05-23 22:52:00
7:52 PM,70.0,60.1,71,29.77,10.0,South,8.1,-,N/A,,Overcast,190,2013-05-23 23:52:00
8:52 PM,69.1,60.1,73,29.76,10.0,South,5.8,-,N/A,,Mostly Cloudy,190,2013-05-24 00:52:00
9:52 PM,68.0,60.1,76,29.76,10.0,South,3.5,-,N/A,,Overcast,170,2013-05-24 01:52:00
10:52 PM,64.9,60.1,84,29.76,10.0,North,6.9,-,0.00,,Overcast,350,2013-05-24 02:52:00
11:52 PM,63.0,59.0,87,29.75,10.0,NNW,4.6,-,0.00,,Overcast,330,2013-05-24 03:52:00